Time,TemperatureF,DewpointF,PressureIn,WindDirection,WindDirectionDegrees,WindSpeedMPH,WindSpeedGustMPH,Humidity,HourlyPrecipIn,Conditions,Clouds,dailyrainin,SoftwareType,DateUTC
2013-02-17 00:09:00,31.6,21.5,30.01,South,173,3.0,5.0,66,0.00,RA,,0.00,WeatherDisplay:10.37,2013-02-17 06:09:00,
2013-02-17 00:14:00,31.7,21.6,30.01,South,171,3.0,8.0,66,0.00,RA,,0.00,WeatherDisplay:10.37,2013-02-17 06:14:00,
2013-02-17 00:19:00,31.7,21.6,30.01,South,171,3.0,8.0,66,0.00,OVC,,0.00,WeatherDisplay:10.37,2013-02-17 06:19:00,
2013-02-17 00:29:00,31.4,21.0,30.00,South,180,5.0,5.0,65,0.00,OVC,,0.00,WeatherDisplay:10.37,2013-02-17 06:29:00,
2013-02-17 00:39:00,31.0,21.0,30.00,South,190,5.0,7.0,66,0.00,OVC,,0.00,WeatherDisplay:10.37,2013-02-17 06:39:00,
2013-02-17 00:44:00,30.8,20.4,30.00,South,186,3.0,5.0,65,0.00,OVC,,0.00,WeatherDisplay:10.37,2013-02-17 06:44:00,
2013-02-17 00:49:00,30.5,20.1,30.01,South,182,3.0,5.0,65,0.00,OVC,,0.00,WeatherDisplay:10.37,2013-02-17 06:49:00,
2013-02-17 00:54:00,30.3,20.3,30.00,South,187,3.0,5.0,66,0.00,OVC,,0.00,WeatherDisplay:10.37,2013-02-17 06:54:00,
2013-02-17 00:59:00,30.2,20.2,30.00,SSW,192,3.0,6.0,66,0.00,OVC,,0.00,WeatherDisplay:10.37,2013-02-17 06:59:00,
2013-02-17 01:09:00,30.3,19.9,30.00,SSW,198,5.0,7.0,65,0.00,CLR,,0.00,WeatherDisplay:10.37,2013-02-17 07:09:00,
2013-02-17 01:14:00,30.2,19.5,30.00,SSW,197,5.0,7.0,64,0.00,CLR,,0.00,WeatherDisplay:10.37,2013-02-17 07:14:00,
2013-02-17 01:19:00,30.1,19.7,30.00,SSW,196,3.0,6.0,65,0.00,CLR,,0.00,WeatherDisplay:10.37,2013-02-17 07:19:00,
2013-02-17 01:24:00,29.7,19.4,30.00,SSW,196,2.0,3.0,65,0.00,CLR,,0.00,WeatherDisplay:10.37,2013-02-17 07:24:00,
2013-02-17 01:29:00,29.5,19.2,30.00,SSW,195,1.0,4.0,65,0.00,CLR,,0.00,WeatherDisplay:10.37,2013-02-17 07:29:00,
2013-02-17 01:39:00,29.2,18.9,30.00,SSW,193,1.0,3.0,65,0.00,CLR,,0.00,WeatherDisplay:10.37,2013-02-17 07:39:00,
2013-02-17 01:44:00,29.0,18.7,30.00,SSW,193,1.0,3.0,65,0.00,CLR,,0.00,WeatherDisplay:10.37,2013-02-17 07:44:00,
2013-02-17 01:49:00,28.8,18.9,30.00,SSW,193,1.0,3.0,66,0.00,CLR,,0.00,WeatherDisplay:10.37,2013-02-17 07:49:00,
2013-02-17 01:54:00,28.9,18.6,30.00,SSW,193,2.0,3.0,65,0.00,CLR,,0.00,WeatherDisplay:10.37,2013-02-17 07:54:00,
2013-02-17 02:00:00,28.9,18.6,30.00,SSW,193,2.0,3.0,65,0.00,CLR,,0.00,WeatherDisplay:10.37,2013-02-17 08:00:00,
2013-02-17 02:09:00,28.5,18.6,30.00,South,175,3.0,4.0,66,0.00,CLR,,0.00,WeatherDisplay:10.37,2013-02-17 08:09:00,
2013-02-17 02:14:00,28.4,18.8,30.00,South,175,3.0,4.0,67,0.00,CLR,,0.00,WeatherDisplay:10.37,2013-02-17 08:14:00,
2013-02-17 02:19:00,28.4,18.8,30.00,South,174,3.0,5.0,67,0.00,CLR,,0.00,WeatherDisplay:10.37,2013-02-17 08:19:00,
2013-02-17 02:24:00,28.5,18.9,30.00,South,178,3.0,5.0,67,0.00,CLR,,0.00,WeatherDisplay:10.37,2013-02-17 08:24:00,
2013-02-17 02:29:00,28.6,19.0,29.99,South,182,3.0,5.0,67,0.00,CLR,,0.00,WeatherDisplay:10.37,2013-02-17 08:29:00,
2013-02-17 02:39:00,29.1,18.8,29.99,SSW,196,5.0,6.0,65,0.00,CLR,,0.00,WeatherDisplay:10.37,2013-02-17 08:39:00,
2013-02-17 02:44:00,29.1,19.2,29.99,SSW,204,5.0,5.0,66,0.00,CLR,,0.00,WeatherDisplay:10.37,2013-02-17 08:44:00,
2013-02-17 02:49:00,29.3,19.3,29.99,SSW,200,5.0,6.0,66,0.00,CLR,,0.00,WeatherDisplay:10.37,2013-02-17 08:49:00,
2013-02-17 02:54:00,29.5,19.2,29.99,SSW,197,6.0,7.0,65,0.00,CLR,,0.00,WeatherDisplay:10.37,2013-02-17 08:54:00,
2013-02-17 03:00:00,29.8,19.1,29.99,SSW,196,7.0,7.0,64,0.00,CLR,,0.00,WeatherDisplay:10.37,2013-02-17 09:00:00,
2013-02-17 03:09:00,30.1,19.7,29.98,SSW,196,5.0,8.0,65,0.00,CLR,,0.00,WeatherDisplay:10.37,2013-02-17 09:09:00,
2013-02-17 03:14:00,29.9,19.9,29.98,South,187,3.0,5.0,66,0.00,CLR,,0.00,WeatherDisplay:10.37,2013-02-17 09:14:00,
2013-02-17 03:19:00,29.8,19.5,29.98,South,184,6.0,7.0,65,0.00,CLR,,0.00,WeatherDisplay:10.37,2013-02-17 09:19:00,
2013-02-17 03:24:00,29.9,19.9,29.98,SSW,192,5.0,6.0,66,0.00,CLR,,0.00,WeatherDisplay:10.37,2013-02-17 09:24:00,
2013-02-17 03:29:00,29.8,20.2,29.98,South,189,3.0,5.0,67,0.00,CLR,,0.00,WeatherDisplay:10.37,2013-02-17 09:29:00,
2013-02-17 03:39:00,29.6,20.0,29.98,South,190,5.0,6.0,67,0.00,CLR,,0.00,WeatherDisplay:10.37,2013-02-17 09:39:00,
2013-02-17 03:44:00,29.5,19.5,29.98,South,190,5.0,7.0,66,0.00,CLR,,0.00,WeatherDisplay:10.37,2013-02-17 09:44:00,
2013-02-17 03:49:00,29.2,19.3,29.98,South,190,5.0,6.0,66,0.00,CLR,,0.00,WeatherDisplay:10.37,2013-02-17 09:49:00,
2013-02-17 03:55:00,29.0,19.1,29.98,SSW,192,3.0,5.0,66,0.00,CLR,,0.00,WeatherDisplay:10.37,2013-02-17 09:55:00,
2013-02-17 03:59:00,28.8,18.9,29.98,SSW,193,3.0,4.0,66,0.00,CLR,,0.00,WeatherDisplay:10.37,2013-02-17 09:59:00,
2013-02-17 04:09:00,28.4,18.5,29.98,SSW,193,2.0,4.0,66,0.00,CLR,,0.00,WeatherDisplay:10.37,2013-02-17 10:09:00,
2013-02-17 04:14:00,28.3,18.0,29.98,South,188,2.0,4.0,65,0.00,CLR,,0.00,WeatherDisplay:10.37,2013-02-17 10:14:00,
2013-02-17 04:19:00,28.2,17.9,29.98,South,178,3.0,5.0,65,0.00,CLR,,0.00,WeatherDisplay:10.37,2013-02-17 10:19:00,
2013-02-17 04:24:00,28.2,17.6,29.98,South,171,2.0,5.0,64,0.00,CLR,,0.00,WeatherDisplay:10.37,2013-02-17 10:24:00,
2013-02-17 04:29:00,28.2,17.6,29.97,SSE,168,3.0,5.0,64,0.00,CLR,,0.00,WeatherDisplay:10.37,2013-02-17 10:29:00,
2013-02-17 04:39:00,28.5,17.1,29.97,SSE,167,3.0,6.0,62,0.00,CLR,,0.00,WeatherDisplay:10.37,2013-02-17 10:39:00,
2013-02-17 04:44:00,28.6,17.2,29.97,South,169,5.0,6.0,62,0.00,CLR,,0.00,WeatherDisplay:10.37,2013-02-17 10:44:00,
2013-02-17 04:49:00,28.6,17.2,29.97,SSE,168,2.0,6.0,62,0.00,CLR,,0.00,WeatherDisplay:10.37,2013-02-17 10:49:00,
2013-02-17 04:54:00,28.0,17.0,29.97,SSE,167,2.0,3.0,63,0.00,CLR,,0.00,WeatherDisplay:10.37,2013-02-17 10:54:00,
2013-02-17 05:00:00,27.5,16.9,29.97,SSE,167,2.0,3.0,64,0.00,CLR,,0.00,WeatherDisplay:10.37,2013-02-17 11:00:00,
2013-02-17 05:09:00,27.8,18.2,29.97,South,171,3.0,6.0,67,0.00,CLR,,0.00,WeatherDisplay:10.37,2013-02-17 11:09:00,
2013-02-17 05:14:00,27.9,18.4,29.97,South,171,3.0,6.0,67,0.00,CLR,,0.00,WeatherDisplay:10.37,2013-02-17 11:14:00,
2013-02-17 05:19:00,27.8,18.3,29.97,South,170,3.0,6.0,67,0.00,CLR,,0.00,WeatherDisplay:10.37,2013-02-17 11:19:00,
2013-02-17 05:24:00,27.5,18.3,29.97,South,170,1.0,3.0,68,0.00,CLR,,0.00,WeatherDisplay:10.37,2013-02-17 11:24:00,
2013-02-17 05:29:00,26.8,17.6,29.97,South,170,1.0,2.0,68,0.00,CLR,,0.00,WeatherDisplay:10.37,2013-02-17 11:29:00,
2013-02-17 05:39:00,26.1,17.6,29.97,South,170,2.0,3.0,70,0.00,CLR,,0.00,WeatherDisplay:10.37,2013-02-17 11:39:00,
2013-02-17 05:44:00,25.8,17.4,29.97,South,170,2.0,3.0,70,0.00,CLR,,0.00,WeatherDisplay:10.37,2013-02-17 11:44:00,
2013-02-17 05:49:00,25.6,17.5,29.97,South,170,2.0,3.0,71,0.00,CLR,,0.00,WeatherDisplay:10.37,2013-02-17 11:49:00,
2013-02-17 05:54:00,25.5,17.7,29.97,South,170,2.0,4.0,72,0.00,CLR,,0.00,WeatherDisplay:10.37,2013-02-17 11:54:00,
2013-02-17 05:59:00,25.7,17.9,29.97,South,170,2.0,4.0,72,0.00,CLR,,0.00,WeatherDisplay:10.37,2013-02-17 11:59:00,
2013-02-17 06:09:00,25.5,17.7,29.97,South,170,3.0,6.0,72,0.00,CLR,,0.00,WeatherDisplay:10.37,2013-02-17 12:09:00,
2013-02-17 06:14:00,25.2,17.4,29.97,South,169,2.0,3.0,72,0.00,CLR,,0.00,WeatherDisplay:10.37,2013-02-17 12:14:00,
2013-02-17 06:19:00,24.9,17.5,29.97,South,169,2.0,3.0,73,0.00,CLR,,0.00,WeatherDisplay:10.37,2013-02-17 12:19:00,
2013-02-17 06:29:00,24.9,17.8,29.96,South,169,2.0,3.0,74,0.00,CLR,,0.00,WeatherDisplay:10.37,2013-02-17 12:29:00,
2013-02-17 06:40:00,25.0,17.9,29.96,SSE,150,2.0,4.0,74,0.00,CLR,,0.00,WeatherDisplay:10.37,2013-02-17 12:40:00,
2013-02-17 06:49:00,25.0,17.8,29.96,SE,137,2.0,4.0,74,0.00,CLR,,0.00,WeatherDisplay:10.37,2013-02-17 12:49:00,
2013-02-17 06:54:00,24.9,17.8,29.96,SE,138,2.0,4.0,74,0.00,CLR,,0.00,WeatherDisplay:10.37,2013-02-17 12:54:00,
2013-02-17 06:59:00,24.7,17.9,29.95,SE,138,3.0,4.0,75,0.00,CLR,,0.00,WeatherDisplay:10.37,2013-02-17 12:59:00,
2013-02-17 07:04:00,24.7,17.9,29.95,SE,138,3.0,4.0,75,0.00,CLR,,0.00,WeatherDisplay:10.37,2013-02-17 13:04:00,
2013-02-17 07:09:00,24.7,17.9,29.95,SE,137,3.0,5.0,75,0.00,CLR,,0.00,WeatherDisplay:10.37,2013-02-17 13:09:00,
2013-02-17 07:14:00,24.8,18.0,29.95,SE,143,3.0,5.0,75,0.00,CLR,,0.00,WeatherDisplay:10.37,2013-02-17 13:14:00,
2013-02-17 07:20:00,24.8,18.0,29.95,SSE,155,3.0,5.0,75,0.00,CLR,,0.00,WeatherDisplay:10.37,2013-02-17 13:20:00,
2013-02-17 07:29:00,25.2,18.4,29.95,SSE,165,3.0,5.0,75,0.00,CLR,,0.00,WeatherDisplay:10.37,2013-02-17 13:29:00,
2013-02-17 07:34:00,25.3,18.2,29.95,SSE,166,3.0,6.0,74,0.00,CLR,,0.00,WeatherDisplay:10.37,2013-02-17 13:34:00,
2013-02-17 07:39:00,25.5,18.7,29.94,SSE,164,3.0,5.0,75,0.00,CLR,,0.00,WeatherDisplay:10.37,2013-02-17 13:39:00,
2013-02-17 07:44:00,25.8,19.0,29.94,SSE,161,3.0,5.0,75,0.00,CLR,,0.00,WeatherDisplay:10.37,2013-02-17 13:44:00,
2013-02-17 07:49:00,26.1,19.0,29.94,SSE,157,3.0,5.0,74,0.00,CLR,,0.00,WeatherDisplay:10.37,2013-02-17 13:49:00,
2013-02-17 07:54:00,26.5,19.3,29.94,SSE,157,5.0,6.0,74,0.00,CLR,,0.00,WeatherDisplay:10.37,2013-02-17 13:54:00,
2013-02-17 07:59:00,26.9,19.7,29.94,SSE,154,5.0,7.0,74,0.00,CLR,,0.00,WeatherDisplay:10.37,2013-02-17 13:59:00,
2013-02-17 08:04:00,27.3,19.8,29.94,SSE,152,6.0,7.0,73,0.00,CLR,,0.00,WeatherDisplay:10.37,2013-02-17 14:04:00,
2013-02-17 08:09:00,27.7,19.9,29.93,SSE,156,6.0,9.0,72,0.00,CLR,,0.00,WeatherDisplay:10.37,2013-02-17 14:09:00,
2013-02-17 08:14:00,28.0,19.8,29.94,SSE,160,6.0,9.0,71,0.00,CLR,,0.00,WeatherDisplay:10.37,2013-02-17 14:14:00,
2013-02-17 08:19:00,28.4,20.2,29.94,SSE,160,6.0,9.0,71,0.00,CLR,,0.00,WeatherDisplay:10.37,2013-02-17 14:19:00,
2013-02-17 08:29:00,29.2,20.3,29.94,SSE,165,5.0,8.0,69,0.00,CLR,,0.00,WeatherDisplay:10.37,2013-02-17 14:29:00,
2013-02-17 08:39:00,29.8,20.5,29.94,SSE,160,6.0,10.0,68,0.00,CLR,,0.00,WeatherDisplay:10.37,2013-02-17 14:39:00,
2013-02-17 08:44:00,30.1,20.5,29.94,SSE,163,6.0,10.0,67,0.00,CLR,,0.00,WeatherDisplay:10.37,2013-02-17 14:44:00,
2013-02-17 08:49:00,30.5,20.5,29.94,SSE,166,6.0,10.0,66,0.00,CLR,,0.00,WeatherDisplay:10.37,2013-02-17 14:49:00,
2013-02-17 08:54:00,30.9,21.2,29.93,SSE,162,5.0,10.0,67,0.00,CLR,,0.00,WeatherDisplay:10.37,2013-02-17 14:54:00,
2013-02-17 09:00:00,31.2,20.8,29.93,SSE,160,5.0,8.0,65,0.00,CLR,,0.00,WeatherDisplay:10.37,2013-02-17 15:00:00,
2013-02-17 09:09:00,32.0,21.2,29.93,SSE,167,6.0,8.0,64,0.00,CLR,,0.00,WeatherDisplay:10.37,2013-02-17 15:09:00,
2013-02-17 09:14:00,32.4,22.0,29.93,SSE,167,5.0,8.0,65,0.00,CLR,,0.00,WeatherDisplay:10.37,2013-02-17 15:14:00,
2013-02-17 09:20:00,32.7,21.5,29.93,South,171,7.0,12.0,63,0.00,CLR,,0.00,WeatherDisplay:10.37,2013-02-17 15:20:00,
2013-02-17 09:30:00,33.2,22.0,29.93,SSE,167,6.0,9.0,63,0.00,CLR,,0.00,WeatherDisplay:10.37,2013-02-17 15:30:00,
2013-02-17 09:39:00,33.8,22.6,29.92,SSE,165,5.0,10.0,63,0.00,CLR,,0.00,WeatherDisplay:10.37,2013-02-17 15:39:00,
2013-02-17 09:44:00,34.1,22.4,29.92,SSE,166,7.0,12.0,62,0.00,CLR,,0.00,WeatherDisplay:10.37,2013-02-17 15:44:00,
2013-02-17 09:49:00,34.5,23.2,29.92,South,169,5.0,8.0,63,0.00,CLR,,0.00,WeatherDisplay:10.37,2013-02-17 15:49:00,
2013-02-17 09:54:00,35.1,23.0,29.92,SSE,163,6.0,9.0,61,0.00,CLR,,0.00,WeatherDisplay:10.37,2013-02-17 15:54:00,
2013-02-17 10:00:00,35.6,23.9,29.92,SSE,167,5.0,7.0,62,0.00,CLR,,0.00,WeatherDisplay:10.37,2013-02-17 16:00:00,
2013-02-17 10:09:00,36.3,23.3,29.91,SSE,161,5.0,10.0,59,0.00,CLR,,0.00,WeatherDisplay:10.37,2013-02-17 16:09:00,
2013-02-17 10:14:00,36.6,24.4,29.91,SSE,164,7.0,10.0,61,0.00,CLR,,0.00,WeatherDisplay:10.37,2013-02-17 16:14:00,
2013-02-17 10:19:00,36.8,24.6,29.91,SSE,162,5.0,8.0,61,0.00,CLR,,0.00,WeatherDisplay:10.37,2013-02-17 16:19:00,
2013-02-17 10:24:00,37.2,24.9,29.91,SSE,159,6.0,10.0,61,0.00,CLR,,0.00,WeatherDisplay:10.37,2013-02-17 16:24:00,
2013-02-17 10:30:00,37.3,25.1,29.91,SSE,164,5.0,9.0,61,0.00,CLR,,0.00,WeatherDisplay:10.37,2013-02-17 16:30:00,
2013-02-17 10:39:00,38.3,25.6,29.91,SSE,164,6.0,8.0,60,0.00,CLR,,0.00,WeatherDisplay:10.37,2013-02-17 16:39:00,
2013-02-17 10:44:00,38.5,26.2,29.90,SSE,158,6.0,9.0,61,0.00,CLR,,0.00,WeatherDisplay:10.37,2013-02-17 16:44:00,
2013-02-17 10:49:00,38.8,26.1,29.90,SSE,147,6.0,9.0,60,0.00,CLR,,0.00,WeatherDisplay:10.37,2013-02-17 16:49:00,
2013-02-17 10:54:00,39.4,27.0,29.90,SSE,156,6.0,10.0,61,0.00,CLR,,0.00,WeatherDisplay:10.37,2013-02-17 16:54:00,
2013-02-17 11:00:00,39.7,26.9,29.90,SSE,155,7.0,10.0,60,0.00,CLR,,0.00,WeatherDisplay:10.37,2013-02-17 17:00:00,
2013-02-17 11:09:00,40.8,27.6,29.89,SSE,153,7.0,10.0,59,0.00,CLR,,0.00,WeatherDisplay:10.37,2013-02-17 17:09:00,
2013-02-17 11:14:00,41.1,27.9,29.89,SSE,154,6.0,10.0,59,0.00,CLR,,0.00,WeatherDisplay:10.37,2013-02-17 17:14:00,
2013-02-17 11:19:00,41.6,28.3,29.89,SSE,152,7.0,10.0,59,0.00,CLR,,0.00,WeatherDisplay:10.37,2013-02-17 17:19:00,
2013-02-17 11:24:00,42.0,28.2,29.89,SE,145,5.0,8.0,58,0.00,CLR,,0.00,WeatherDisplay:10.37,2013-02-17 17:24:00,
2013-02-17 11:30:00,42.5,28.3,29.88,SSE,153,7.0,10.0,57,0.00,CLR,,0.00,WeatherDisplay:10.37,2013-02-17 17:30:00,
2013-02-17 11:39:00,43.4,29.6,29.88,SE,144,5.0,8.0,58,0.00,CLR,,0.00,WeatherDisplay:10.37,2013-02-17 17:39:00,
2013-02-17 11:44:00,44.0,29.3,29.87,SE,146,7.0,10.0,56,0.00,CLR,,0.00,WeatherDisplay:10.37,2013-02-17 17:44:00,
2013-02-17 11:49:00,44.2,29.9,29.87,SSE,156,5.0,12.0,57,0.00,CLR,,0.00,WeatherDisplay:10.37,2013-02-17 17:49:00,
2013-02-17 11:54:00,44.9,30.1,29.87,SSE,154,7.0,12.0,56,0.00,CLR,,0.00,WeatherDisplay:10.37,2013-02-17 17:54:00,
2013-02-17 12:00:00,45.3,30.5,29.86,SSE,163,7.0,12.0,56,0.00,CLR,,0.00,WeatherDisplay:10.37,2013-02-17 18:00:00,
2013-02-17 12:09:00,45.9,31.1,29.86,SSE,155,7.0,10.0,56,0.00,CLR,,0.00,WeatherDisplay:10.37,2013-02-17 18:09:00,
2013-02-17 12:14:00,46.4,31.5,29.86,SSE,157,6.0,9.0,56,0.00,CLR,,0.00,WeatherDisplay:10.37,2013-02-17 18:14:00,
2013-02-17 12:19:00,47.0,31.6,29.85,SSE,156,7.0,10.0,55,0.00,CLR,,0.00,WeatherDisplay:10.37,2013-02-17 18:19:00,
2013-02-17 12:24:00,47.3,31.0,29.85,SSE,164,8.0,13.0,53,0.00,CLR,,0.00,WeatherDisplay:10.37,2013-02-17 18:24:00,
2013-02-17 12:30:00,47.8,31.5,29.84,SSE,168,7.0,10.0,53,0.00,CLR,,0.00,WeatherDisplay:10.37,2013-02-17 18:30:00,
2013-02-17 12:39:00,48.0,31.6,29.83,SSE,165,8.0,13.0,53,0.00,CLR,,0.00,WeatherDisplay:10.37,2013-02-17 18:39:00,
2013-02-17 12:44:00,48.4,32.1,29.83,SSE,162,6.0,12.0,53,0.00,CLR,,0.00,WeatherDisplay:10.37,2013-02-17 18:44:00,
2013-02-17 12:49:00,49.0,31.2,29.82,South,171,9.0,14.0,50,0.00,CLR,,0.00,WeatherDisplay:10.37,2013-02-17 18:49:00,
2013-02-17 12:54:00,49.5,32.1,29.82,South,173,8.0,12.0,51,0.00,CLR,,0.00,WeatherDisplay:10.37,2013-02-17 18:54:00,
2013-02-17 13:00:00,49.5,32.1,29.81,SSE,166,8.0,14.0,51,0.00,CLR,,0.00,WeatherDisplay:10.37,2013-02-17 19:00:00,
2013-02-17 13:09:00,49.7,31.8,29.81,SSE,166,7.0,13.0,50,0.00,CLR,,0.00,WeatherDisplay:10.37,2013-02-17 19:09:00,
2013-02-17 13:14:00,50.1,31.7,29.80,SSE,167,8.0,12.0,49,0.00,CLR,,0.00,WeatherDisplay:10.37,2013-02-17 19:14:00,
2013-02-17 13:19:00,50.8,32.3,29.80,SSE,165,7.0,12.0,49,0.00,CLR,,0.00,WeatherDisplay:10.37,2013-02-17 19:19:00,
2013-02-17 13:24:00,51.3,32.8,29.80,SSE,165,7.0,10.0,49,0.00,CLR,,0.00,WeatherDisplay:10.37,2013-02-17 19:24:00,
2013-02-17 13:30:00,51.6,32.5,29.79,South,170,8.0,14.0,48,0.00,CLR,,0.00,WeatherDisplay:10.37,2013-02-17 19:30:00,
2013-02-17 13:34:00,51.7,32.1,29.79,South,180,9.0,17.0,47,0.00,CLR,,0.00,WeatherDisplay:10.37,2013-02-17 19:34:00,
2013-02-17 13:39:00,51.7,32.6,29.78,South,176,7.0,16.0,48,0.00,CLR,,0.00,WeatherDisplay:10.37,2013-02-17 19:39:00,
2013-02-17 13:44:00,52.4,33.3,29.78,SSE,162,8.0,13.0,48,0.00,CLR,,0.00,WeatherDisplay:10.37,2013-02-17 19:44:00,
2013-02-17 13:49:00,52.3,32.6,29.78,SSE,158,8.0,13.0,47,0.00,CLR,,0.00,WeatherDisplay:10.37,2013-02-17 19:49:00,
2013-02-17 13:54:00,52.7,32.5,29.77,South,169,10.0,14.0,46,0.00,CLR,,0.00,WeatherDisplay:10.37,2013-02-17 19:54:00,
2013-02-17 14:00:00,53.3,33.0,29.77,South,177,8.0,13.0,46,0.00,CLR,,0.00,WeatherDisplay:10.37,2013-02-17 20:00:00,
2013-02-17 14:09:00,53.6,32.2,29.76,SSE,165,7.0,13.0,44,0.00,CLR,,0.00,WeatherDisplay:10.37,2013-02-17 20:09:00,
2013-02-17 14:14:00,53.9,33.0,29.76,South,170,8.0,12.0,45,0.00,CLR,,0.00,WeatherDisplay:10.37,2013-02-17 20:14:00,
2013-02-17 14:20:00,53.9,33.1,29.76,SSE,167,6.0,12.0,45,0.00,CLR,,0.00,WeatherDisplay:10.37,2013-02-17 20:20:00,
2013-02-17 14:30:00,54.7,33.2,29.75,South,169,7.0,14.0,44,0.00,CLR,,0.00,WeatherDisplay:10.37,2013-02-17 20:30:00,
2013-02-17 14:34:00,54.8,32.7,29.75,SSE,168,8.0,17.0,43,0.00,CLR,,0.00,WeatherDisplay:10.37,2013-02-17 20:34:00,
2013-02-17 14:39:00,54.7,32.6,29.75,SSE,167,7.0,15.0,43,0.00,CLR,,0.00,WeatherDisplay:10.37,2013-02-17 20:39:00,
2013-02-17 14:44:00,55.3,33.2,29.74,SSE,166,9.0,13.0,43,0.00,CLR,,0.00,WeatherDisplay:10.37,2013-02-17 20:44:00,
2013-02-17 14:49:00,55.4,32.7,29.74,South,171,8.0,12.0,42,0.00,CLR,,0.00,WeatherDisplay:10.37,2013-02-17 20:49:00,
2013-02-17 14:54:00,55.7,32.9,29.74,South,170,8.0,13.0,42,0.00,CLR,,0.00,WeatherDisplay:10.37,2013-02-17 20:54:00,
2013-02-17 15:00:00,55.4,32.7,29.74,SSE,166,8.0,13.0,42,0.00,CLR,,0.00,WeatherDisplay:10.37,2013-02-17 21:00:00,
2013-02-17 15:09:00,55.2,32.5,29.73,SSE,168,8.0,12.0,42,0.00,CLR,,0.00,WeatherDisplay:10.37,2013-02-17 21:09:00,
2013-02-17 15:14:00,55.3,32.6,29.73,SSE,164,6.0,15.0,42,0.00,CLR,,0.00,WeatherDisplay:10.37,2013-02-17 21:14:00,
2013-02-17 15:19:00,55.5,32.2,29.73,SSE,165,7.0,15.0,41,0.00,CLR,,0.00,WeatherDisplay:10.37,2013-02-17 21:19:00,
2013-02-17 15:24:00,56.2,33.4,29.72,South,170,8.0,13.0,42,0.00,CLR,,0.00,WeatherDisplay:10.37,2013-02-17 21:24:00,
2013-02-17 15:30:00,56.2,32.2,29.72,SSE,165,9.0,15.0,40,0.00,CLR,,0.00,WeatherDisplay:10.37,2013-02-17 21:30:00,
2013-02-17 15:39:00,56.0,32.0,29.72,South,171,9.0,17.0,40,0.00,CLR,,0.00,WeatherDisplay:10.37,2013-02-17 21:39:00,
2013-02-17 15:44:00,55.8,31.8,29.71,South,170,9.0,16.0,40,0.00,CLR,,0.00,WeatherDisplay:10.37,2013-02-17 21:44:00,
2013-02-17 15:49:00,55.9,31.9,29.71,South,172,8.0,16.0,40,0.00,CLR,,0.00,WeatherDisplay:10.37,2013-02-17 21:49:00,
2013-02-17 15:54:00,55.9,31.9,29.71,SSE,168,10.0,15.0,40,0.00,CLR,,0.00,WeatherDisplay:10.37,2013-02-17 21:54:00,
2013-02-17 16:00:00,55.9,31.9,29.71,SSE,165,8.0,17.0,40,0.00,CLR,,0.00,WeatherDisplay:10.37,2013-02-17 22:00:00,
2013-02-17 16:09:00,55.9,31.9,29.71,South,170,8.0,13.0,40,0.00,CLR,,0.00,WeatherDisplay:10.37,2013-02-17 22:09:00,
2013-02-17 16:15:00,55.8,31.8,29.70,SSE,167,9.0,16.0,40,0.00,CLR,,0.00,WeatherDisplay:10.37,2013-02-17 22:15:00,
2013-02-17 16:24:00,55.6,31.6,29.70,SSE,160,7.0,13.0,40,0.00,CLR,,0.00,WeatherDisplay:10.37,2013-02-17 22:24:00,
2013-02-17 16:30:00,55.4,32.7,29.69,SSE,159,7.0,13.0,42,0.00,CLR,,0.00,WeatherDisplay:10.37,2013-02-17 22:30:00,
2013-02-17 16:39:00,55.2,32.5,29.69,SSE,156,8.0,13.0,42,0.00,CLR,,0.00,WeatherDisplay:10.37,2013-02-17 22:39:00,
2013-02-17 16:44:00,55.1,32.4,29.68,SSE,157,8.0,12.0,42,0.00,CLR,,0.00,WeatherDisplay:10.37,2013-02-17 22:44:00,
2013-02-17 16:49:00,55.0,32.3,29.68,SSE,157,8.0,13.0,42,0.00,CLR,,0.00,WeatherDisplay:10.37,2013-02-17 22:49:00,
2013-02-17 16:54:00,55.2,32.5,29.68,SSE,155,7.0,12.0,42,0.00,CLR,,0.00,WeatherDisplay:10.37,2013-02-17 22:54:00,
2013-02-17 17:00:00,55.3,32.6,29.68,SSE,153,8.0,12.0,42,0.00,CLR,,0.00,WeatherDisplay:10.37,2013-02-17 23:00:00,
2013-02-17 17:09:00,55.1,32.4,29.67,SSE,151,7.0,12.0,42,0.00,CLR,,0.00,WeatherDisplay:10.37,2013-02-17 23:09:00,
2013-02-17 17:14:00,54.8,32.8,29.67,SSE,154,6.0,13.0,43,0.00,CLR,,0.00,WeatherDisplay:10.37,2013-02-17 23:14:00,
2013-02-17 17:19:00,54.5,32.4,29.67,SSE,156,8.0,12.0,43,0.00,CLR,,0.00,WeatherDisplay:10.37,2013-02-17 23:19:00,
2013-02-17 17:24:00,54.2,32.2,29.67,SSE,156,7.0,13.0,43,0.00,CLR,,0.00,WeatherDisplay:10.37,2013-02-17 23:24:00,
2013-02-17 17:30:00,53.5,32.7,29.67,SSE,157,6.0,10.0,45,0.00,CLR,,0.00,WeatherDisplay:10.37,2013-02-17 23:30:00,
2013-02-17 17:34:00,53.2,32.4,29.66,SSE,160,7.0,12.0,45,0.00,CLR,,0.00,WeatherDisplay:10.37,2013-02-17 23:34:00,
2013-02-17 17:39:00,53.1,32.3,29.67,SSE,163,8.0,12.0,45,0.00,CLR,,0.00,WeatherDisplay:10.37,2013-02-17 23:39:00,
2013-02-17 17:44:00,52.9,32.2,29.67,SSE,165,8.0,12.0,45,0.00,CLR,,0.00,WeatherDisplay:10.37,2013-02-17 23:44:00,
2013-02-17 17:50:00,52.7,31.9,29.67,SSE,166,7.0,12.0,45,0.00,CLR,,0.00,WeatherDisplay:10.37,2013-02-17 23:50:00,
2013-02-17 18:00:00,52.1,32.0,29.67,SSE,165,9.0,13.0,46,0.00,CLR,,0.00,WeatherDisplay:10.37,2013-02-18 00:00:00,
2013-02-17 18:04:00,51.9,31.8,29.66,SSE,167,8.0,13.0,46,0.00,CLR,,0.00,WeatherDisplay:10.37,2013-02-18 00:04:00,
2013-02-17 18:09:00,51.6,31.5,29.67,SSE,166,8.0,13.0,46,0.00,CLR,,0.00,WeatherDisplay:10.37,2013-02-18 00:09:00,
2013-02-17 18:14:00,51.4,31.8,29.67,SSE,162,8.0,12.0,47,0.00,CLR,,0.00,WeatherDisplay:10.37,2013-02-18 00:14:00,
2013-02-17 18:20:00,51.1,31.6,29.67,SSE,163,9.0,12.0,47,0.00,CLR,,0.00,WeatherDisplay:10.37,2013-02-18 00:20:00,
2013-02-17 18:24:00,50.9,31.9,29.66,South,169,8.0,12.0,48,0.00,CLR,,0.00,WeatherDisplay:10.37,2013-02-18 00:24:00,
2013-02-17 18:30:00,50.7,31.7,29.66,South,171,7.0,13.0,48,0.00,CLR,,0.00,WeatherDisplay:10.37,2013-02-18 00:30:00,
2013-02-17 18:34:00,50.8,31.8,29.66,SSE,166,8.0,13.0,48,0.00,CLR,,0.00,WeatherDisplay:10.37,2013-02-18 00:34:00,
2013-02-17 18:39:00,50.8,31.8,29.66,SSE,166,8.0,13.0,48,0.00,CLR,,0.00,WeatherDisplay:10.37,2013-02-18 00:39:00,
2013-02-17 18:44:00,50.7,31.7,29.66,SSE,163,7.0,12.0,48,0.00,CLR,,0.00,WeatherDisplay:10.37,2013-02-18 00:44:00,
2013-02-17 18:49:00,50.4,32.0,29.65,SSE,163,7.0,12.0,49,0.00,CLR,,0.00,WeatherDisplay:10.37,2013-02-18 00:49:00,
2013-02-17 18:54:00,50.2,31.8,29.65,SSE,164,8.0,12.0,49,0.00,CLR,,0.00,WeatherDisplay:10.37,2013-02-18 00:54:00,
2013-02-17 19:00:00,50.0,31.6,29.65,SSE,165,7.0,12.0,49,0.00,CLR,,0.00,WeatherDisplay:10.37,2013-02-18 01:00:00,
2013-02-17 19:09:00,49.8,31.9,29.65,SSE,164,7.0,12.0,50,0.00,CLR,,0.00,WeatherDisplay:10.37,2013-02-18 01:09:00,
2013-02-17 19:14:00,49.6,32.2,29.65,SSE,163,7.0,10.0,51,0.00,CLR,,0.00,WeatherDisplay:10.37,2013-02-18 01:14:00,
2013-02-17 19:20:00,49.5,32.1,29.65,SSE,163,6.0,10.0,51,0.00,CLR,,0.00,WeatherDisplay:10.37,2013-02-18 01:20:00,
2013-02-17 19:30:00,48.8,32.0,29.65,SSE,165,6.0,9.0,52,0.00,CLR,,0.00,WeatherDisplay:10.37,2013-02-18 01:30:00,
2013-02-17 19:39:00,48.6,32.2,29.64,SSE,162,6.0,8.0,53,0.00,CLR,,0.00,WeatherDisplay:10.37,2013-02-18 01:39:00,
2013-02-17 19:44:00,48.4,32.0,29.64,SSE,160,6.0,10.0,53,0.00,CLR,,0.00,WeatherDisplay:10.37,2013-02-18 01:44:00,
2013-02-17 19:50:00,48.2,31.9,29.63,SSE,163,6.0,9.0,53,0.00,CLR,,0.00,WeatherDisplay:10.37,2013-02-18 01:50:00,
2013-02-17 20:00:00,48.0,32.1,29.63,SSE,161,7.0,12.0,54,0.00,CLR,,0.00,WeatherDisplay:10.37,2013-02-18 02:00:00,
2013-02-17 20:09:00,48.1,32.2,29.63,SSE,164,7.0,12.0,54,0.00,CLR,,0.00,WeatherDisplay:10.37,2013-02-18 02:09:00,
2013-02-17 20:15:00,48.0,32.1,29.63,SSE,164,7.0,12.0,54,0.00,CLR,,0.00,WeatherDisplay:10.37,2013-02-18 02:15:00,
2013-02-17 20:20:00,47.8,31.9,29.63,SSE,164,7.0,9.0,54,0.00,CLR,,0.00,WeatherDisplay:10.37,2013-02-18 02:20:00,
2013-02-17 20:24:00,47.7,32.3,29.62,SSE,165,8.0,12.0,55,0.00,CLR,,0.00,WeatherDisplay:10.37,2013-02-18 02:24:00,
2013-02-17 20:30:00,47.5,32.1,29.62,SSE,165,7.0,12.0,55,0.00,CLR,,0.00,WeatherDisplay:10.37,2013-02-18 02:30:00,
2013-02-17 20:39:00,47.5,32.2,29.62,SSE,167,7.0,12.0,55,0.00,CLR,,0.00,WeatherDisplay:10.37,2013-02-18 02:39:00,
2013-02-17 20:44:00,47.6,32.2,29.62,South,169,7.0,10.0,55,0.00,CLR,,0.00,WeatherDisplay:10.37,2013-02-18 02:44:00,
2013-02-17 20:50:00,47.6,32.3,29.62,SSE,167,8.0,12.0,55,0.00,CLR,,0.00,WeatherDisplay:10.37,2013-02-18 02:50:00,
2013-02-17 20:54:00,47.8,32.4,29.62,SSE,164,7.0,12.0,55,0.00,CLR,,0.00,WeatherDisplay:10.37,2013-02-18 02:54:00,
2013-02-17 21:00:00,47.9,32.1,29.62,SSE,165,8.0,13.0,54,0.00,CLR,,0.00,WeatherDisplay:10.37,2013-02-18 03:00:00,
2013-02-17 21:09:00,47.9,32.0,29.61,SSE,168,8.0,13.0,54,0.00,CLR,,0.00,WeatherDisplay:10.37,2013-02-18 03:09:00,
2013-02-17 21:14:00,47.8,31.9,29.61,SSE,168,8.0,12.0,54,0.00,CLR,,0.00,WeatherDisplay:10.37,2013-02-18 03:14:00,
2013-02-17 21:19:00,48.0,32.2,29.61,SSE,168,8.0,12.0,54,0.00,CLR,,0.00,WeatherDisplay:10.37,2013-02-18 03:19:00,
2013-02-17 21:24:00,48.3,32.0,29.61,SSE,167,8.0,12.0,53,0.00,CLR,,0.00,WeatherDisplay:10.37,2013-02-18 03:24:00,
2013-02-17 21:30:00,48.7,32.3,29.61,SSE,168,6.0,12.0,53,0.00,CLR,,0.00,WeatherDisplay:10.37,2013-02-18 03:30:00,
2013-02-17 21:34:00,49.0,32.6,29.61,South,170,7.0,12.0,53,0.00,CLR,,0.00,WeatherDisplay:10.37,2013-02-18 03:34:00,
2013-02-17 21:39:00,49.3,32.4,29.61,South,178,7.0,15.0,52,0.00,CLR,,0.00,WeatherDisplay:10.37,2013-02-18 03:39:00,
2013-02-17 21:45:00,49.3,32.4,29.61,South,181,7.0,12.0,52,0.00,CLR,,0.00,WeatherDisplay:10.37,2013-02-18 03:45:00,
2013-02-17 21:49:00,49.2,32.3,29.60,South,176,6.0,12.0,52,0.00,CLR,,0.00,WeatherDisplay:10.37,2013-02-18 03:49:00,
2013-02-17 21:54:00,49.1,32.2,29.60,South,171,7.0,10.0,52,0.00,CLR,,0.00,WeatherDisplay:10.37,2013-02-18 03:54:00,
2013-02-17 22:00:00,49.1,32.2,29.60,South,172,7.0,9.0,52,0.00,CLR,,0.00,WeatherDisplay:10.37,2013-02-18 04:00:00,
2013-02-17 22:10:00,49.5,32.1,29.60,South,178,7.0,12.0,51,0.00,CLR,,0.00,WeatherDisplay:10.37,2013-02-18 04:10:00,
2013-02-17 22:14:00,49.5,32.1,29.59,South,180,7.0,12.0,51,0.00,CLR,,0.00,WeatherDisplay:10.37,2013-02-18 04:14:00,
2013-02-17 22:20:00,49.7,32.3,29.59,South,178,7.0,12.0,51,0.00,CLR,,0.00,WeatherDisplay:10.37,2013-02-18 04:20:00,
2013-02-17 22:24:00,49.9,32.0,29.59,South,183,7.0,10.0,50,0.00,CLR,,0.00,WeatherDisplay:10.37,2013-02-18 04:24:00,
2013-02-17 22:30:00,50.0,32.1,29.59,South,184,8.0,12.0,50,0.00,CLR,,0.00,WeatherDisplay:10.37,2013-02-18 04:30:00,
2013-02-17 22:34:00,50.4,32.4,29.59,South,188,9.0,16.0,50,0.00,CLR,,0.00,WeatherDisplay:10.37,2013-02-18 04:34:00,
2013-02-17 22:40:00,50.7,32.3,29.59,South,188,10.0,17.0,49,0.00,CLR,,0.00,WeatherDisplay:10.37,2013-02-18 04:40:00,
2013-02-17 22:44:00,51.1,32.1,29.59,South,189,9.0,22.0,48,0.00,CLR,,0.00,WeatherDisplay:10.37,2013-02-18 04:44:00,
2013-02-17 22:50:00,51.4,31.8,29.59,SSW,193,13.0,20.0,47,0.00,CLR,,0.00,WeatherDisplay:10.37,2013-02-18 04:50:00,
2013-02-17 22:55:00,51.6,31.5,29.59,SSW,194,12.0,18.0,46,0.00,CLR,,0.00,WeatherDisplay:10.37,2013-02-18 04:55:00,
2013-02-17 23:00:00,51.7,31.5,29.59,South,191,12.0,20.0,46,0.00,CLR,,0.00,WeatherDisplay:10.37,2013-02-18 05:00:00,
2013-02-17 23:04:00,51.3,31.7,29.58,SSW,192,12.0,15.0,47,0.00,CLR,,0.00,WeatherDisplay:10.37,2013-02-18 05:04:00,
2013-02-17 23:09:00,51.5,31.4,29.58,South,188,10.0,16.0,46,0.00,CLR,,0.00,WeatherDisplay:10.37,2013-02-18 05:09:00,
2013-02-17 23:14:00,51.7,31.6,29.58,SSW,192,12.0,17.0,46,0.00,CLR,,0.00,WeatherDisplay:10.37,2013-02-18 05:14:00,
2013-02-17 23:20:00,51.9,31.7,29.58,SSW,194,10.0,17.0,46,0.00,CLR,,0.00,WeatherDisplay:10.37,2013-02-18 05:20:00,
2013-02-17 23:30:00,52.3,31.0,29.58,SSW,193,13.0,17.0,44,0.00,CLR,,0.00,WeatherDisplay:10.37,2013-02-18 05:30:00,
2013-02-17 23:35:00,52.6,31.2,29.58,SSW,193,12.0,20.0,44,0.00,CLR,,0.00,WeatherDisplay:10.37,2013-02-18 05:35:00,
2013-02-17 23:40:00,52.7,31.4,29.58,South,190,13.0,18.0,44,0.00,CLR,,0.00,WeatherDisplay:10.37,2013-02-18 05:40:00,
2013-02-17 23:44:00,53.1,31.2,29.58,SSW,192,12.0,22.0,43,0.00,CLR,,0.00,WeatherDisplay:10.37,2013-02-18 05:44:00,
2013-02-17 23:50:00,53.0,31.1,29.58,South,190,13.0,18.0,43,0.00,CLR,,0.00,WeatherDisplay:10.37,2013-02-18 05:50:00,